{"data":{"norad_id":67108,"epoch":"2026-05-25T03:33:35.360352Z","epoch_age_seconds":59296,"freshness":"FRESH","line1":"1 67108U 25299G   26145.14832593  .00015158  00000+0  55904-3 0  9997","line2":"2 67108  42.9983  96.8417 0000650 216.8003 143.2804 15.27590050 24816","mean_motion":15.2759005,"eccentricity":6.5e-5,"inclination_deg":42.9983,"raan_deg":96.8417,"arg_perigee_deg":216.8003,"mean_anomaly_deg":143.2804,"bstar":0.00055904,"rev_number":2481,"period_min":94.266128533634,"perigee_km":482.57302774898,"apogee_km":483.46497802936,"semimajor_km":6861.1560028892,"source":"CELESTRAK","updated_at":"2026-05-25T13:38:21.473772Z"}}